period_start,C,m1,H,J0,J1,J2,J3,J4,J5,JA,JB,JC,JD,JJ,JK,JN,#
2018-07-15 00:00:35,0.01,0.10,0.00,26.99,30.57,33.09,13.69,47.43,1016.11,2014.00,3350.21,3045.00,3496.23,600.15,587.97,32.97,0000 0000 0000 0000 000000
2018-07-15 00:05:36,0.00,0.11,0.00,27.01,30.60,33.09,13.62,47.42,1016.04,2013.98,3350.01,3045.00,3496.01,599.36,587.07,33.02,0000 0000 0000 0000 000000
2018-07-15 00:10:38,-0.01,0.11,0.00,27.03,30.62,33.15,13.75,47.52,1015.94,2013.90,3350.00,3044.98,3496.00,600.13,587.84,33.07,0000 0000 0000 0000 000000
2018-07-15 00:15:39,-0.00,0.10,0.00,27.07,30.65,33.18,13.81,47.41,1015.90,2013.78,3349.96,3044.83,3495.97,600.39,587.94,33.12,0000 0000 0000 0000 000000
2018-07-15 00:20:40,0.00,0.10,0.00,27.11,30.67,33.19,13.73,47.52,1016.01,2013.44,3349.60,3044.29,3495.63,599.97,587.47,33.17,0000 0000 0000 0000 000000
2018-07-15 00:25:42,-0.00,0.10,0.00,27.13,30.70,33.22,13.75,47.41,1016.10,2013.13,3349.08,3044.02,3495.08,600.12,587.60,33.22,0000 0000 0000 0000 000000
2018-07-15 00:30:43,-0.01,0.10,0.00,27.13,30.72,33.24,13.70,47.73,1016.10,2013.03,3348.97,3044.00,3494.99,599.83,587.37,33.27,0000 0000 0000 0000 000000
2018-07-15 00:35:44,0.01,0.10,0.00,27.15,30.74,33.27,13.76,47.54,1016.12,2013.00,3348.90,3043.92,3494.67,600.00,587.58,33.32,0000 0000 0000 0000 000000
2018-07-15 00:40:45,0.03,0.11,0.00,27.17,30.77,33.29,13.79,47.52,1016.10,2013.00,3348.40,3043.47,3494.11,600.61,587.91,33.37,0000 0000 0000 0000 000000
2018-07-15 00:45:47,0.00,0.11,0.00,27.20,30.79,33.32,13.76,48.06,1016.09,2012.98,3348.02,3043.04,3494.00,600.27,587.63,33.42,0000 0000 0000 0000 000000
2018-07-15 00:50:48,-0.00,0.11,0.00,27.22,30.81,33.34,13.81,47.97,1016.11,2012.97,3348.00,3043.00,3493.99,600.42,587.69,33.47,0000 0000 0000 0000 000000
2018-07-15 00:55:49,-0.01,0.11,0.00,27.24,30.84,33.37,13.77,47.63,1016.12,2012.89,3347.99,3043.00,3493.93,599.94,587.33,33.52,0000 0000 0000 0000 000000
2018-07-15 01:00:51,-0.03,0.10,0.00,27.28,30.86,33.41,13.68,47.54,1016.08,2012.52,3347.96,3042.98,3493.42,599.99,587.16,33.57,0000 0000 0000 0000 000000
2018-07-15 01:05:52,-0.00,0.10,0.00,27.28,30.88,33.42,13.78,47.80,1016.07,2012.21,3347.64,3042.75,3493.10,600.17,587.39,33.62,0000 0000 0000 0000 000000
2018-07-15 01:10:53,0.01,0.10,0.00,27.32,30.90,33.45,13.69,48.08,1016.11,2012.01,3347.03,3042.07,3492.99,599.93,587.15,33.67,0000 0000 0000 0000 000000
2018-07-15 01:15:54,0.00,0.10,0.00,27.33,30.92,33.46,13.71,47.67,1016.13,2012.00,3347.00,3042.01,3492.96,600.18,587.10,33.72,0000 0000 0000 0000 000000
2018-07-15 01:20:55,0.00,0.10,0.00,27.36,30.95,33.50,13.80,47.66,1016.11,2012.00,3346.99,3042.00,3492.73,600.25,587.35,33.77,0000 0000 0000 0000 000000
2018-07-15 01:25:57,0.02,0.11,0.00,27.37,30.96,33.53,13.66,47.48,1016.07,2012.00,3346.68,3041.97,3492.14,599.86,587.00,33.82,0000 0000 0000 0000 000000
2018-07-15 01:30:58,0.00,0.11,0.00,27.39,30.99,33.54,13.73,47.64,1016.10,2011.99,3346.20,3041.83,3492.00,600.15,587.16,33.88,0000 0000 0000 0000 000000
2018-07-15 01:35:59,0.01,0.11,0.00,27.42,31.01,33.55,13.67,47.45,1016.08,2011.95,3346.22,3041.61,3492.00,599.61,586.54,33.93,0000 0000 0000 0000 000000
2018-07-15 01:41:00,-0.01,0.11,0.00,27.43,31.03,33.59,13.68,47.54,1016.10,2011.83,3346.02,3041.14,3491.92,599.76,586.55,33.98,0000 0000 0000 0000 000000
2018-07-15 01:46:02,-0.02,0.11,0.00,27.44,31.05,33.61,13.77,47.49,1016.13,2011.43,3346.00,3041.01,3491.47,600.35,587.26,34.03,0000 0000 0000 0000 000000
2018-07-15 01:51:04,0.00,0.11,0.00,27.45,31.07,33.62,13.70,47.42,1016.13,2011.43,3345.97,3041.00,3491.16,599.84,586.88,34.08,0000 0000 0000 0000 000000
2018-07-15 01:56:05,0.02,0.10,0.00,27.47,31.10,33.63,13.70,47.28,1016.14,2011.24,3345.50,3040.67,3490.99,600.13,587.10,34.13,0000 0000 0000 0000 000000
2018-07-15 02:01:06,0.03,0.11,0.00,27.47,31.11,33.67,13.62,47.18,1016.13,2011.56,3344.99,3040.08,3490.93,599.70,586.59,34.18,0000 0000 0000 0000 000000
2018-07-15 02:06:08,-0.00,0.11,0.00,27.48,31.13,33.69,13.67,47.17,1016.13,2011.41,3344.72,3040.01,3490.47,599.98,586.92,34.23,0000 0000 0000 0000 000000
2018-07-15 02:11:09,-0.02,0.11,0.00,27.50,31.15,33.72,13.68,47.27,1016.13,2011.21,3344.17,3040.00,3490.07,599.92,586.82,34.28,0000 0000 0000 0000 000000
2018-07-15 02:16:10,0.00,0.11,0.00,27.52,31.17,33.75,13.73,47.21,1016.13,2011.16,3344.05,3040.00,3490.00,600.10,586.93,34.33,0000 0000 0000 0000 000000
2018-07-15 02:21:12,-0.01,0.11,0.00,27.53,31.19,33.76,13.70,47.24,1016.13,2011.05,3344.01,3039.97,3489.99,600.05,586.77,34.38,0000 0000 0000 0000 000000
2018-07-15 02:26:13,0.01,0.11,0.00,27.56,31.20,33.78,13.64,47.38,1016.14,2011.01,3343.99,3039.75,3489.92,599.65,586.56,34.43,0000 0000 0000 0000 000000
2018-07-15 02:31:14,0.03,0.11,0.00,27.57,31.22,33.79,13.78,47.52,1016.13,2011.00,3343.72,3039.14,3489.35,600.37,586.99,34.48,0000 0000 0000 0000 000000
2018-07-15 02:36:15,0.01,0.11,0.00,27.60,31.24,33.80,13.81,47.21,1016.13,2011.00,3343.19,3039.02,3489.03,600.12,586.84,34.53,0000 0000 0000 0000 000000
2018-07-15 02:41:16,-0.01,0.11,0.00,27.61,31.26,33.83,13.75,47.23,1016.11,2011.00,3343.28,3039.00,3489.00,600.20,586.75,34.58,0000 0000 0000 0000 000000
2018-07-15 02:46:18,0.00,0.11,0.00,27.63,31.27,33.85,13.65,47.19,1016.13,2010.99,3343.18,3039.00,3489.00,599.79,586.51,34.63,0000 0000 0000 0000 000000
2018-07-15 02:51:18,-0.00,0.11,0.00,27.65,31.30,33.84,13.64,47.19,1016.13,2010.93,3343.01,3038.97,3488.87,599.60,586.17,34.68,0000 0000 0000 0000 000000
2018-07-15 02:56:20,0.01,0.11,0.00,27.66,31.31,33.86,13.76,47.22,1016.13,2010.85,3343.00,3038.95,3488.54,600.14,586.66,34.73,0000 0000 0000 0000 000000
2018-07-15 03:01:21,-0.01,0.11,0.00,27.68,31.33,33.90,13.64,47.12,1016.13,2010.73,3343.00,3038.71,3488.25,599.93,586.40,34.79,0000 0000 0000 0000 000000
2018-07-15 03:06:23,-0.02,0.11,0.00,27.71,31.35,33.92,13.71,47.23,1016.13,2010.24,3342.92,3038.12,3488.01,599.94,586.44,34.84,0000 0000 0000 0000 000000
2018-07-15 03:11:24,-0.00,0.11,0.00,27.73,31.37,33.91,13.71,47.19,1016.13,2010.04,3342.70,3038.02,3487.99,600.03,586.43,34.89,0000 0000 0000 0000 000000
2018-07-15 03:16:25,0.00,0.11,0.00,27.75,31.38,33.93,13.72,47.13,1016.13,2010.01,3342.43,3038.00,3487.97,600.23,586.58,34.94,0000 0000 0000 0000 000000
2018-07-15 03:21:25,0.00,0.11,0.00,27.75,31.40,33.96,13.70,47.54,1016.13,2010.00,3342.04,3038.00,3487.91,599.97,586.22,34.99,0000 0000 0000 0000 000000
2018-07-15 03:26:26,0.02,0.11,0.00,27.77,31.42,33.97,13.73,47.61,1016.13,2010.00,3341.87,3037.81,3487.23,600.13,586.43,35.04,0000 0000 0000 0000 000000
2018-07-15 03:31:27,0.02,0.11,0.00,27.78,31.44,34.00,13.75,47.44,1016.16,2010.00,3341.51,3037.25,3487.00,600.06,586.26,35.09,0000 0000 0000 0000 000000
2018-07-15 03:36:28,0.00,0.11,0.00,27.79,31.45,34.03,13.67,47.40,1016.16,2009.99,3341.16,3037.05,3487.00,599.97,586.27,35.14,0000 0000 0000 0000 000000
2018-07-15 03:41:30,0.00,0.11,0.00,27.80,31.47,34.06,13.77,47.27,1016.21,2009.99,3341.01,3037.00,3486.94,599.89,586.23,35.19,0000 0000 0000 0000 000000
2018-07-15 03:46:31,0.01,0.11,0.00,27.81,31.49,34.10,13.72,47.26,1016.18,2009.98,3340.99,3036.99,3486.34,600.38,586.63,35.24,0000 0000 0000 0000 000000
2018-07-15 03:51:32,0.00,0.11,0.00,27.84,31.50,34.09,13.67,47.19,1016.17,2009.97,3340.97,3036.99,3486.07,600.05,586.27,35.29,0000 0000 0000 0000 000000
2018-07-15 03:56:33,0.00,0.11,0.00,27.85,31.52,34.17,13.66,47.12,1016.36,2009.97,3340.78,3036.96,3486.01,599.87,586.02,35.34,0000 0000 0000 0000 000000
2018-07-15 04:01:34,0.00,0.11,0.00,27.85,31.53,34.15,13.66,47.10,1016.29,2009.92,3340.56,3036.85,3486.00,599.50,585.77,35.39,0000 0000 0000 0000 000000
2018-07-15 04:06:35,-0.03,0.11,0.00,27.85,31.55,34.16,13.72,47.17,1016.27,2009.54,3340.34,3036.44,3485.97,599.63,585.96,35.44,0000 0000 0000 0000 000000
2018-07-15 04:11:37,-0.01,0.11,0.00,27.88,31.57,34.16,13.70,47.38,1016.33,2009.14,3340.08,3036.09,3485.71,600.49,586.76,35.49,0000 0000 0000 0000 000000
2018-07-15 04:16:38,0.00,0.11,0.00,27.89,31.58,34.18,13.69,47.19,1016.48,2009.01,3340.00,3036.01,3485.12,599.84,586.08,35.54,0000 0000 0000 0000 000000
2018-07-15 04:21:39,0.00,0.11,0.00,27.90,31.60,34.20,13.67,47.08,1016.47,2009.01,3340.00,3036.00,3485.03,599.90,586.14,35.59,0000 0000 0000 0000 000000
2018-07-15 04:26:40,0.00,0.11,0.00,27.91,31.61,34.25,13.73,47.23,1016.42,2009.00,3339.99,3036.00,3485.00,599.69,585.96,35.64,0000 0000 0000 0000 000000
2018-07-15 04:31:42,0.00,0.11,0.00,27.92,31.62,34.30,13.67,47.12,1016.56,2009.00,3339.84,3035.98,3484.99,599.39,585.64,35.70,0000 0000 0000 0000 000000
2018-07-15 04:36:43,0.01,0.11,0.00,27.92,31.64,34.29,13.73,47.30,1016.60,2009.00,3339.21,3035.87,3484.94,600.35,586.59,35.75,0000 0000 0000 0000 000000
2018-07-15 04:41:44,0.02,0.11,0.00,27.94,31.65,34.39,13.73,48.35,1016.61,2008.99,3339.01,3035.23,3484.44,600.12,586.36,35.80,0000 0000 0000 0000 000000
2018-07-15 04:46:45,0.01,0.11,0.00,27.96,31.67,34.38,13.71,48.17,1016.62,2008.98,3338.99,3035.02,3484.04,599.65,585.88,35.85,0000 0000 0000 0000 000000
2018-07-15 04:51:46,0.00,0.11,0.00,27.97,31.67,34.38,13.72,47.95,1016.62,2008.97,3338.94,3035.00,3484.00,600.14,586.37,35.90,0000 0000 0000 0000 000000
2018-07-15 04:56:47,0.00,0.11,0.00,27.97,31.70,34.42,13.73,47.97,1016.62,2008.98,3338.74,3035.00,3484.00,600.16,586.43,35.95,0000 0000 0000 0000 000000
2018-07-15 05:01:48,0.00,0.11,0.00,27.98,31.70,34.43,13.70,48.07,1016.62,2008.97,3338.25,3034.99,3484.00,600.03,586.19,36.00,0000 0000 0000 0000 000000
2018-07-15 05:06:50,0.00,0.11,0.00,27.99,31.72,34.46,13.74,48.03,1016.63,2008.97,3338.00,3034.96,3483.97,600.15,586.21,36.05,0000 0000 0000 0000 000000
2018-07-15 05:11:51,0.00,0.11,0.00,28.00,31.72,34.48,13.66,47.85,1016.67,2008.96,3338.00,3034.88,3483.81,599.66,585.98,36.10,0000 0000 0000 0000 000000
2018-07-15 05:16:52,-0.00,0.11,0.00,28.01,31.74,34.52,13.72,47.89,1016.79,2008.77,3337.97,3034.51,3483.21,599.84,586.06,36.15,0000 0000 0000 0000 000000
2018-07-15 05:21:53,-0.02,0.11,0.00,28.01,31.75,34.50,13.73,47.83,1017.03,2008.45,3337.94,3034.17,3483.03,600.13,586.49,36.20,0000 0000 0000 0000 000000
2018-07-15 05:26:55,0.01,0.11,0.00,28.02,31.76,34.55,13.77,47.63,1016.98,2008.25,3337.43,3034.02,3483.00,600.16,586.34,36.25,0000 0000 0000 0000 000000
2018-07-15 05:31:56,-0.00,0.11,0.00,28.02,31.77,34.59,13.80,47.58,1017.09,2008.14,3337.04,3034.00,3482.97,600.37,586.71,36.30,0000 0000 0000 0000 000000
2018-07-15 05:36:57,-0.01,0.11,0.00,28.03,31.77,34.60,13.63,47.35,1017.10,2008.07,3337.02,3034.00,3482.97,599.78,586.10,36.35,0000 0000 0000 0000 000000
2018-07-15 05:41:59,0.01,0.11,0.00,28.03,31.79,34.59,13.68,47.45,1017.09,2008.15,3337.00,3034.00,3482.94,599.69,586.01,36.40,0000 0000 0000 0000 000000
2018-07-15 05:47:00,0.00,0.11,0.00,28.03,31.80,34.64,13.63,47.40,1017.10,2008.13,3337.00,3034.00,3482.81,599.72,586.12,36.45,0000 0000 0000 0000 000000
2018-07-15 05:52:01,0.03,0.11,0.00,28.05,31.80,34.64,13.69,47.23,1017.10,2008.35,3336.98,3033.99,3482.71,599.84,586.20,36.50,0000 0000 0000 0000 000000
2018-07-15 05:57:02,-0.02,0.11,0.00,28.04,31.81,34.67,13.74,47.35,1017.10,2008.14,3336.87,3033.95,3482.15,599.82,586.19,36.55,0000 0000 0000 0000 000000
2018-07-15 06:02:04,0.00,0.11,0.00,28.03,31.82,34.70,13.67,47.19,1017.09,2008.09,3336.50,3033.89,3482.02,599.89,586.29,36.60,0000 0000 0000 0000 000000
2018-07-15 06:07:05,0.00,0.11,0.00,28.04,31.82,34.70,13.74,47.45,1017.10,2008.07,3336.27,3033.78,3482.01,600.01,586.31,36.65,0000 0000 0000 0000 000000
2018-07-15 06:12:06,0.01,0.11,0.00,28.02,31.82,34.70,13.69,47.30,1017.11,2008.05,3336.05,3033.43,3482.00,600.06,586.40,36.70,0000 0000 0000 0000 000000
2018-07-15 06:17:07,0.00,0.12,0.00,28.05,31.82,34.70,13.70,47.27,1017.12,2008.04,3336.01,3033.18,3481.99,599.94,586.29,36.76,0000 0000 0000 0000 000000
2018-07-15 06:22:08,0.00,0.12,0.00,28.04,31.83,34.71,13.68,47.27,1017.11,2008.03,3336.01,3033.11,3481.99,599.79,586.17,36.81,0000 0000 0000 0000 000000
2018-07-15 06:27:10,0.00,0.12,0.00,28.05,31.85,34.75,13.67,47.34,1017.11,2008.04,3336.00,3033.10,3481.98,600.08,586.43,36.86,0000 0000 0000 0000 000000
2018-07-15 06:32:11,-0.00,0.12,0.00,28.04,31.85,34.73,13.68,47.33,1017.11,2008.01,3336.00,3033.04,3481.96,599.90,586.18,36.91,0000 0000 0000 0000 000000
2018-07-15 06:37:13,0.00,0.12,0.00,28.03,31.85,34.74,13.72,47.34,1017.11,2008.00,3336.00,3033.01,3481.94,600.23,586.68,36.96,0000 0000 0000 0000 000000
2018-07-15 06:42:14,0.01,0.12,0.00,28.04,31.85,34.75,13.75,47.38,1017.12,2008.00,3335.96,3033.00,3481.37,599.92,586.25,37.01,0000 0000 0000 0000 000000
2018-07-15 06:47:15,-0.00,0.12,0.00,28.03,31.86,34.76,13.77,47.36,1017.14,2008.00,3335.98,3033.00,3481.28,600.23,586.56,37.06,0000 0000 0000 0000 000000
2018-07-15 06:52:16,0.00,0.12,0.00,28.03,31.87,34.75,13.77,47.23,1017.22,2008.00,3335.94,3033.00,3481.09,600.35,586.78,37.11,0000 0000 0000 0000 000000
2018-07-15 06:57:18,0.00,0.12,0.00,28.02,31.87,34.75,13.69,47.18,1017.25,2008.00,3335.97,3033.00,3481.01,600.01,586.43,37.16,0000 0000 0000 0000 000000
2018-07-15 07:02:19,0.00,0.12,0.00,28.03,31.87,34.77,13.74,47.19,1017.33,2007.99,3335.97,3033.00,3481.01,599.81,586.28,37.21,0000 0000 0000 0000 000000
2018-07-15 07:07:20,0.00,0.12,0.00,28.02,31.87,34.78,13.64,47.19,1017.32,2007.99,3335.93,3033.00,3481.01,599.26,585.84,37.26,0000 0000 0000 0000 000000
2018-07-15 07:12:21,0.00,0.12,0.00,28.02,31.87,34.78,13.70,47.13,1017.26,2007.99,3335.85,3032.99,3481.00,599.93,586.40,37.31,0000 0000 0000 0000 000000
2018-07-15 07:17:22,0.00,0.12,0.00,28.02,31.88,34.77,13.75,47.37,1017.16,2007.99,3335.61,3032.97,3481.00,600.10,586.49,37.36,0000 0000 0000 0000 000000
2018-07-15 07:22:24,0.00,0.12,0.00,28.03,31.90,34.79,13.78,47.24,1017.29,2007.98,3335.24,3032.94,3481.00,600.12,586.65,37.41,0000 0000 0000 0000 000000
2018-07-15 07:27:25,0.00,0.12,0.00,28.04,31.90,34.75,13.74,47.13,1017.53,2007.97,3335.08,3032.95,3480.99,600.01,586.49,37.46,0000 0000 0000 0000 000000
2018-07-15 07:32:26,0.00,0.12,0.00,28.05,31.90,34.78,13.76,47.33,1017.48,2007.99,3335.06,3032.92,3480.99,600.08,586.64,37.51,0000 0000 0000 0000 000000
2018-07-15 07:37:27,0.00,0.12,0.00,28.06,31.90,34.78,13.73,47.33,1017.59,2007.99,3335.00,3032.73,3480.98,599.97,586.51,37.56,0000 0000 0000 0000 000000
2018-07-15 07:42:28,0.00,0.12,0.00,28.08,31.91,34.75,13.68,47.21,1017.59,2007.98,3335.02,3032.75,3480.94,600.05,586.63,37.61,0000 0000 0000 0000 000000
2018-07-15 07:47:30,0.00,0.12,0.00,28.10,31.92,34.77,13.71,47.33,1017.59,2007.98,3335.00,3032.68,3480.95,599.91,586.45,37.67,0000 0000 0000 0000 000000
2018-07-15 07:52:31,0.01,0.12,0.00,28.13,31.92,34.75,13.73,47.24,1017.60,2007.99,3335.00,3032.24,3480.67,600.06,586.51,37.72,0000 0000 0000 0000 000000
2018-07-15 07:57:32,0.00,0.12,0.00,28.17,31.93,34.76,13.72,47.13,1017.62,2007.98,3335.00,3032.07,3480.25,599.92,586.27,37.77,0000 0000 0000 0000 000000
2018-07-15 08:02:34,0.00,0.12,0.00,28.20,31.95,34.70,13.69,47.21,1017.62,2007.97,3334.97,3032.04,3480.11,600.09,586.38,37.82,0000 0000 0000 0000 000000
2018-07-15 08:07:35,-0.00,0.12,0.00,28.21,31.95,34.67,13.78,47.25,1017.62,2007.95,3334.96,3032.00,3480.01,599.95,586.33,37.87,0000 0000 0000 0000 000000
2018-07-15 08:12:36,0.00,0.12,0.00,28.23,31.97,34.66,13.62,47.30,1017.60,2007.98,3334.89,3032.00,3480.01,599.56,585.83,37.92,0000 0000 0000 0000 000000
2018-07-15 08:17:37,-0.01,0.12,0.00,28.26,31.98,34.63,13.62,47.43,1017.59,2007.93,3334.77,3032.00,3480.00,599.82,585.99,37.97,0000 0000 0000 0000 000000
2018-07-15 08:22:38,-0.01,0.12,0.00,28.30,32.00,34.58,13.73,47.38,1017.60,2007.79,3334.40,3032.00,3479.99,600.32,586.33,38.02,0000 0000 0000 0000 000000
2018-07-15 08:27:40,-0.02,0.12,0.00,28.34,32.01,34.55,13.75,47.47,1017.61,2007.55,3334.04,3031.96,3479.91,600.02,586.13,38.07,0000 0000 0000 0000 000000
2018-07-15 08:32:41,0.00,0.12,0.00,28.35,32.02,34.58,13.64,47.55,1017.65,2007.33,3334.00,3031.93,3479.70,599.98,586.02,38.12,0000 0000 0000 0000 000000
2018-07-15 08:37:43,0.00,0.12,0.00,28.36,32.04,34.58,13.63,47.41,1017.82,2007.12,3334.00,3031.47,3479.10,599.82,585.96,38.17,0000 0000 0000 0000 000000
2018-07-15 08:42:44,-0.00,0.12,0.00,28.37,32.05,34.58,13.69,47.50,1017.85,2007.04,3333.98,3031.08,3479.00,599.99,585.93,38.22,0000 0000 0000 0000 000000
2018-07-15 08:47:45,0.00,0.12,0.00,28.41,32.07,34.60,13.72,47.52,1017.91,2007.01,3333.97,3031.04,3479.00,600.22,586.18,38.27,0000 0000 0000 0000 000000
2018-07-15 08:52:46,0.00,0.12,0.00,28.40,32.08,34.61,13.71,47.44,1017.84,2007.00,3333.92,3031.01,3479.00,600.33,586.44,38.32,0000 0000 0000 0000 000000
2018-07-15 08:57:48,0.00,0.12,0.00,28.42,32.10,34.62,13.69,47.52,1017.97,2007.00,3333.54,3031.00,3478.96,599.49,585.71,38.37,0000 0000 0000 0000 000000
2018-07-15 09:02:49,0.01,0.12,0.00,28.45,32.11,34.64,13.75,47.50,1018.06,2007.00,3333.09,3030.99,3478.62,599.85,585.98,38.42,0000 0000 0000 0000 000000
2018-07-15 09:07:50,0.00,0.12,0.00,28.45,32.13,34.68,13.65,47.56,1018.08,2006.99,3333.00,3030.92,3478.14,600.10,586.20,38.47,0000 0000 0000 0000 000000
2018-07-15 09:12:52,0.00,0.12,0.00,28.45,32.15,34.68,13.68,47.61,1018.08,2006.99,3332.98,3030.62,3478.00,599.70,585.77,38.52,0000 0000 0000 0000 000000
2018-07-15 09:17:53,0.02,0.12,0.00,28.47,32.16,34.71,13.63,47.53,1018.09,2006.99,3332.74,3030.20,3478.00,599.78,586.00,38.57,0000 0000 0000 0000 000000
2018-07-15 09:22:54,0.00,0.12,0.00,28.48,32.17,34.72,13.73,47.78,1018.09,2006.98,3332.10,3030.01,3477.96,600.20,586.37,38.63,0000 0000 0000 0000 000000
2018-07-15 09:27:55,0.01,0.12,0.00,28.50,32.19,34.74,13.66,47.76,1018.08,2006.94,3332.00,3029.99,3477.46,599.97,586.00,38.68,0000 0000 0000 0000 000000
2018-07-15 09:32:56,0.02,0.12,0.00,28.53,32.20,34.74,13.73,47.73,1018.08,2006.91,3331.51,3029.75,3477.02,600.57,586.45,38.73,0000 0000 0000 0000 000000
2018-07-15 09:37:57,-0.02,0.12,0.00,28.57,32.22,34.73,13.69,47.72,1018.08,2006.70,3331.09,3029.20,3476.99,600.13,586.01,38.78,0000 0000 0000 0000 000000
2018-07-15 09:42:58,-0.03,0.12,0.00,28.62,32.24,34.72,13.69,47.77,1018.08,2006.28,3331.04,3029.09,3476.96,599.88,585.70,38.83,0000 0000 0000 0000 000000
2018-07-15 09:48:00,0.00,0.12,0.00,28.65,32.26,34.74,13.71,47.68,1018.08,2006.17,3331.00,3029.00,3476.70,600.35,586.07,38.88,0000 0000 0000 0000 000000
2018-07-15 09:53:01,0.00,0.12,0.00,28.66,32.27,34.77,13.74,47.70,1018.09,2006.14,3330.98,3029.00,3476.19,599.93,585.65,38.93,0000 0000 0000 0000 000000
2018-07-15 09:58:02,0.00,0.12,0.00,28.67,32.30,34.79,13.72,47.63,1018.09,2006.05,3330.83,3028.99,3476.01,600.11,585.82,38.98,0000 0000 0000 0000 000000
2018-07-15 10:03:03,0.01,0.12,0.00,28.67,32.31,34.81,13.69,47.71,1018.18,2006.03,3330.16,3028.94,3476.00,599.94,585.64,39.03,0000 0000 0000 0000 000000
2018-07-15 10:08:05,0.01,0.12,0.00,28.68,32.33,34.85,13.66,47.70,1018.36,2006.01,3330.00,3028.44,3475.97,600.14,585.95,39.08,0000 0000 0000 0000 000000
2018-07-15 10:13:06,0.00,0.12,0.00,28.67,32.35,34.90,13.70,47.67,1018.44,2006.00,3330.00,3028.18,3475.89,600.25,586.06,39.13,0000 0000 0000 0000 000000
2018-07-15 10:18:07,0.01,0.12,0.00,28.67,32.37,34.94,13.67,47.66,1018.55,2006.00,3329.95,3028.03,3475.35,599.96,585.93,39.18,0000 0000 0000 0000 000000
2018-07-15 10:23:08,0.01,0.12,0.00,28.65,32.38,34.98,13.69,47.71,1018.57,2006.00,3329.57,3028.00,3475.04,600.02,586.05,39.23,0000 0000 0000 0000 000000
2018-07-15 10:28:10,0.00,0.12,0.00,28.65,32.40,35.03,13.78,47.82,1018.57,2005.99,3329.06,3027.99,3475.00,600.42,586.42,39.28,0000 0000 0000 0000 000000
2018-07-15 10:33:11,0.00,0.12,0.00,28.66,32.40,35.06,13.64,47.78,1018.58,2005.99,3329.00,3027.96,3475.00,599.42,585.49,39.33,0000 0000 0000 0000 000000
2018-07-15 10:38:13,0.02,0.12,0.00,28.67,32.42,35.06,13.66,47.66,1018.60,2005.99,3328.70,3027.66,3474.90,599.82,585.83,39.38,0000 0000 0000 0000 000000
2018-07-15 10:43:14,0.00,0.13,0.00,28.67,32.42,35.03,13.64,47.47,1018.59,2005.99,3328.55,3027.27,3474.68,599.75,585.88,39.43,0000 0000 0000 0000 000000
2018-07-15 10:48:15,0.01,0.13,0.00,28.67,32.44,35.02,13.63,47.73,1018.61,2005.98,3328.53,3027.17,3474.24,599.82,585.82,39.48,0000 0000 0000 0000 000000
2018-07-15 10:53:17,0.00,0.13,0.00,28.69,32.45,35.03,13.70,47.55,1018.59,2005.96,3328.35,3027.07,3474.02,599.84,585.77,39.53,0000 0000 0000 0000 000000
2018-07-15 10:58:18,-0.02,0.13,0.00,28.70,32.45,35.01,13.74,47.79,1018.61,2005.82,3328.29,3027.01,3474.00,600.40,586.25,39.59,0000 0000 0000 0000 000000
2018-07-15 11:03:19,0.00,0.13,0.00,28.70,32.47,35.04,13.72,47.73,1018.64,2005.73,3328.02,3027.00,3474.00,600.26,586.05,39.64,0000 0000 0000 0000 000000
2018-07-15 11:08:21,-0.01,0.13,0.00,28.70,32.47,35.11,13.70,47.62,1018.79,2005.64,3328.00,3027.00,3473.99,600.05,586.06,39.69,0000 0000 0000 0000 000000
2018-07-15 11:13:22,-0.02,0.12,0.00,28.70,32.47,35.20,13.70,47.78,1018.96,2005.47,3328.00,3027.00,3473.99,600.04,586.14,39.74,0000 0000 0000 0000 000000
2018-07-15 11:18:24,0.01,0.12,0.00,28.69,32.49,35.23,13.74,47.69,1019.05,2005.45,3327.96,3026.97,3473.89,600.05,586.33,39.79,0000 0000 0000 0000 000000
2018-07-15 11:23:25,0.02,0.13,0.00,28.69,32.50,35.34,13.67,47.73,1019.06,2005.51,3327.56,3026.74,3473.41,600.04,586.02,39.84,0000 0000 0000 0000 000000
2018-07-15 11:28:26,0.02,0.13,0.00,28.69,32.50,35.29,13.71,47.76,1019.33,2005.46,3327.10,3026.37,3473.07,599.84,586.20,39.89,0000 0000 0000 0000 000000
2018-07-15 11:33:27,0.00,0.13,0.00,28.67,32.50,35.36,13.70,47.64,1019.52,2005.55,3326.97,3026.02,3472.99,600.18,586.63,39.94,0000 0000 0000 0000 000000
2018-07-15 11:38:28,0.01,0.13,0.00,28.66,32.50,35.39,13.69,47.54,1019.54,2005.41,3326.71,3026.00,3472.94,599.80,586.38,39.99,0000 0000 0000 0000 000000
2018-07-15 11:43:30,0.04,0.13,0.00,28.65,32.50,35.40,13.68,47.59,1019.54,2005.49,3326.02,3025.68,3472.18,599.64,586.25,40.04,0000 0000 0000 0000 000000
2018-07-15 11:48:31,-0.01,0.13,0.00,28.64,32.50,35.41,13.71,47.55,1019.55,2005.24,3325.45,3025.13,3471.99,599.87,586.48,40.09,0000 0000 0000 0000 000000
2018-07-15 11:53:32,0.01,0.13,0.00,28.65,32.50,35.40,13.71,47.42,1019.55,2005.14,3325.02,3025.01,3471.76,599.84,586.41,40.14,0000 0000 0000 0000 000000
2018-07-15 11:58:33,0.02,0.13,0.00,28.62,32.50,35.41,13.72,47.40,1019.55,2005.19,3324.77,3024.99,3471.06,599.86,586.42,40.19,0000 0000 0000 0000 000000
2018-07-15 12:03:35,0.02,0.13,0.00,28.61,32.50,35.40,13.76,47.37,1019.55,2005.21,3324.07,3024.87,3471.00,600.17,586.70,40.24,0000 0000 0000 0000 000000
2018-07-15 12:08:36,-0.00,0.13,0.00,28.60,32.49,35.41,13.73,47.77,1019.55,2005.17,3323.99,3024.54,3470.97,600.21,586.81,40.29,0000 0000 0000 0000 000000
2018-07-15 12:13:37,0.00,0.13,0.00,28.59,32.47,35.41,13.68,47.87,1019.60,2005.10,3323.99,3024.41,3470.98,599.50,586.23,40.34,0000 0000 0000 0000 000000
2018-07-15 12:18:38,-0.00,0.13,0.00,28.57,32.47,35.39,13.69,47.55,1019.58,2005.10,3323.96,3024.38,3470.94,599.79,586.57,40.39,0000 0000 0000 0000 000000
2018-07-15 12:23:39,0.00,0.13,0.00,28.57,32.47,35.42,13.71,47.48,1019.57,2005.05,3323.83,3024.21,3470.82,599.62,586.41,40.44,0000 0000 0000 0000 000000
2018-07-15 12:28:41,0.00,0.13,0.00,28.55,32.45,35.36,13.76,47.55,1019.77,2005.08,3323.87,3024.24,3470.72,600.13,586.96,40.50,0000 0000 0000 0000 000000
2018-07-15 12:33:42,-0.00,0.13,0.00,28.55,32.45,35.37,13.74,47.70,1020.02,2005.13,3323.90,3024.56,3470.90,599.82,586.86,40.55,0000 0000 0000 0000 000000
2018-07-15 12:38:44,0.00,0.13,0.00,28.53,32.45,35.38,13.70,47.33,1020.03,2005.13,3323.81,3024.48,3470.84,599.71,586.98,40.60,0000 0000 0000 0000 000000
2018-07-15 12:43:45,-0.00,0.13,0.00,28.52,32.44,35.37,13.69,47.34,1020.04,2005.21,3323.84,3024.66,3470.88,599.59,586.67,40.65,0000 0000 0000 0000 000000
2018-07-15 12:48:46,-0.01,0.13,0.00,28.51,32.42,35.37,13.74,47.38,1020.05,2005.17,3323.87,3024.75,3470.88,599.86,586.98,40.70,0000 0000 0000 0000 000000
2018-07-15 12:53:48,-0.00,0.13,0.00,28.48,32.42,35.38,13.74,47.39,1020.05,2005.15,3323.96,3024.90,3470.88,600.14,587.28,40.75,0000 0000 0000 0000 000000